Погода в Михайловке

Украина / Черкасская область     49°05′09″N   31°03′42″E
темп.,
°C
ветер,
м/с
пор.,
м/с
влажн.,
%
обл.,
%
осадки,
мм/ч
давл.,
гПа
погр.,
м
18 мая, вт
вт1800:00+13юз229211 0.0 100422
03:00+12ю22915 0.0 100315
06:00+12юв2496100 0.2 100275
09:00+16ю4683100 0.2 1002445
12:00+20ю566322 1.1 10011176
15:00+19ююв676791 2.9 9991232
18:00+16ююв5685100 2.5 999404
21:00+13юв3693100 3.3 998111
19 мая, ср
ср1900:00+11ю38976 0.0 999192
03:00+10ю35955 0.0 99987
06:00+9ююв35965 0.0 1000116
09:00+14ююз458657 0.0 1001525
12:00+15ю568093 0.3 1003761
15:00+13зсз6890100 0.4 1004626
18:00+12сз61189100 0.1 1006807
21:00+11зсз61389100 0.5 1007692
20 мая, чт
чт2000:00+10зсз61390100 0.1 1008570
03:00+9з5129599 0.1 1009355
06:00+9зсз410945 0.0 1009324
09:00+14сз577266 0.0 1010660
12:00+17сз3460100 0.0 10101205
15:00+16ююз3369100 1.0 1011454
18:00+15ююз4679100 0.7 1011421
21:00+12юв2496100 1.7 1012166
21 мая, пт
пт2100:00+11всв3596100 3.3 1012149
03:00+11всв2696100 3.4 1012202
06:00+11всв3898100 6.9 1013298
09:00+12всв5997100 13.9 1013450
12:00+11ссв61097100 3.8 1014528
15:00+11ссв71194100 5.3 1014631
18:00+11ссв71294100 0.9 1014520
21:00+11ссв71494100 2.4 1014488
22 мая, сб
сб2200:00+11ссв7139365 0.1 1014433
03:00+11с61294100 0.1 1014393
06:00+11с51195100 0.0 1013372
09:00+12с71192100 0.0 1013411
12:00+18ссв6878100 0.0 1013833
15:00+18ссв5676100 0.1 1013979
18:00+17ссв468279 0.1 1013691
21:00+15ссв248989 0.1 101394